Medford, WI

2:11 PM CDT on June 25, 2017 (GMT -0500)
Taylor County

Weather History for KMDZ - April, 2014

Change the Weather History Date:

Wednesday, April 30, 2014

  Actual Average Record
Temperature  
Mean Temperature 42 °F -  
Max Temperature 48 °F 62 °F 85 °F (1952)
Min Temperature 36 °F 37 °F 5 °F (1956)
Degree Days  
Heating Degree Days 23    
Moisture  
Dew Point 41 °F    
Average Humidity 96    
Maximum Humidity 100    
Minimum Humidity 88    
Precipitation  
Precipitation 0.18 in - - ()
Sea Level Pressure  
Sea Level Pressure 29.65 in    
Wind  
Wind Speed 5 mph (NE)    
Max Wind Speed 8 mph    
Max Gust Speed -    
Visibility 6 miles    
Events Fog , Rain    
Averages and records for this station are not official NWS values.
T = Trace of Precipitation, MM = Missing Value Source: NWS Daily Summary

Daily Weather History Graph

Daily Weather History Graph

Search for Another Location

Airport or City:

Trip Planner

Search our weather history database for the weather conditions in past years. The results will help you decide how hot, cold, wet, or windy it might be!

Date:

Astronomy

Apr. 30, 2014 Rise Set
Actual Time 5:51 AM CDT 8:05 PM CDT
Civil Twilight 5:19 AM CDT 8:38 PM CDT
Nautical Twilight 4:39 AM CDT 9:18 PM CDT
Astronomical Twilight 3:54 AM CDT 10:03 PM CDT
Moon 6:51 AM CDT (4/30) 9:47 PM CDT (4/30)
Length of Visible Light 15h 18m
Length of Day
14h 14m
New Moon, 2% of the Moon is Illuminated
Apr 30
New Moon
May 6
First Quarter
May 14
Full
May 21
Last Quarter
May 28
New

Hourly Weather History & Observations

Time (CDT) Temp. Windchill Dew Point Humidity Pressure Visibility Wind Dir Wind Speed Gust Speed Precip Events Conditions
12:15 AM 37.2 °F 31.2 °F 36.5 °F 97% 29.63 in 7.0 mi NE 8.1 mph - N/A   Drizzle
12:35 AM 37.2 °F 32.6 °F 36.5 °F 97% 29.63 in 7.0 mi NNE 5.8 mph - N/A   Light Drizzle
12:55 AM 37.4 °F 33.8 °F 36.5 °F 97% 29.63 in 7.0 mi NNE 4.6 mph - N/A   Drizzle
1:15 AM 37.2 °F 33.6 °F 36.5 °F 97% 29.63 in 10.0 mi NNE 4.6 mph - N/A   Overcast
1:35 AM 37.2 °F 32.6 °F 36.5 °F 97% 29.63 in 10.0 mi NNE 5.8 mph - N/A Rain Rain
1:55 AM 37.2 °F 31.9 °F 36.5 °F 97% 29.62 in 10.0 mi North 6.9 mph - N/A   Overcast
2:15 AM 37.4 °F 33.8 °F 36.5 °F 97% 29.63 in 10.0 mi North 4.6 mph - N/A   Overcast
2:35 AM 37.4 °F 33.8 °F 36.7 °F 97% 29.63 in 3.0 mi North 4.6 mph - N/A   Overcast
2:55 AM 37.4 °F 33.8 °F 36.7 °F 97% 29.63 in 2.5 mi NNE 4.6 mph - N/A   Overcast
3:15 AM 37.0 °F 33.3 °F 36.7 °F 99% 29.63 in 2.0 mi NNE 4.6 mph - N/A   Overcast
3:35 AM 37.0 °F 33.3 °F 36.7 °F 99% 29.63 in 2.0 mi North 4.6 mph - N/A   Overcast
3:55 AM 36.9 °F 33.1 °F 36.5 °F 99% 29.64 in 2.5 mi NNE 4.6 mph - N/A   Overcast
4:15 AM 36.9 °F 33.1 °F 36.5 °F 99% 29.64 in 2.5 mi NNE 4.6 mph - N/A   Overcast
4:35 AM 36.9 °F 32.2 °F 36.5 °F 99% 29.63 in 2.0 mi NNE 5.8 mph - N/A   Overcast
4:55 AM 36.9 °F 33.1 °F 36.7 °F 99% 29.63 in 1.8 mi NNE 4.6 mph - N/A   Light Drizzle
5:15 AM 37.0 °F 33.3 °F 36.7 °F 99% 29.63 in 1.8 mi NNE 4.6 mph - N/A   Overcast
5:35 AM 37.0 °F 32.4 °F 36.7 °F 99% 29.63 in 1.8 mi NNE 5.8 mph - N/A   Drizzle
5:55 AM 36.9 °F 33.1 °F 36.7 °F 99% 29.64 in 1.8 mi NNE 4.6 mph - N/A   Drizzle
6:15 AM 37.0 °F 32.4 °F 36.9 °F 99% 29.64 in 1.0 mi NNE 5.8 mph - N/A   Drizzle
6:35 AM 37.4 °F 34.9 °F 37.0 °F 99% 29.65 in 0.5 mi NNE 3.5 mph - N/A   Light Drizzle
6:55 AM 37.4 °F 32.8 °F 37.0 °F 99% 29.64 in 0.5 mi NNE 5.8 mph - N/A Fog Fog
7:15 AM 37.4 °F 32.8 °F 37.4 °F 100% 29.64 in 0.5 mi NNE 5.8 mph - N/A   Drizzle
7:35 AM 37.6 °F 34.0 °F 37.4 °F 99% 29.64 in 0.8 mi NNE 4.6 mph - N/A   Drizzle
7:55 AM 37.9 °F 34.4 °F 37.8 °F 99% 29.64 in 1.0 mi NE 4.6 mph - N/A   Drizzle
8:15 AM 38.3 °F 33.9 °F 37.9 °F 99% 29.65 in 1.8 mi NNE 5.8 mph - N/A   Drizzle
8:35 AM 38.5 °F 34.1 °F 38.3 °F 99% 29.65 in 3.0 mi NNE 5.8 mph - N/A   Drizzle
8:55 AM 39.0 °F 34.0 °F 38.8 °F 99% 29.65 in 5.0 mi NNE 6.9 mph - N/A   Drizzle
9:15 AM 39.6 °F 35.4 °F 39.2 °F 99% 29.65 in 5.0 mi NNE 5.8 mph - N/A   Drizzle
9:35 AM 39.9 °F 35.8 °F 39.2 °F 97% 29.65 in 5.0 mi NE 5.8 mph - 0.01 in Rain Light Rain
9:55 AM 40.5 °F 36.5 °F 39.7 °F 97% 29.65 in 7.0 mi NE 5.8 mph - 0.01 in   Drizzle
10:15 AM 41.5 °F 38.6 °F 40.6 °F 97% 29.65 in 7.0 mi NE 4.6 mph - N/A   Drizzle
10:35 AM 42.4 °F 39.6 °F 41.4 °F 96% 29.65 in 10.0 mi NE 4.6 mph - N/A   Drizzle
10:55 AM 43.5 °F 40.1 °F 42.3 °F 95% 29.65 in 10.0 mi ENE 5.8 mph - N/A   Light Drizzle
11:15 AM 44.2 °F 42.7 °F 42.4 °F 93% 29.66 in 10.0 mi NE 3.5 mph - N/A   Drizzle
11:35 AM 44.6 °F 42.2 °F 43.0 °F 94% 29.66 in 10.0 mi ENE 4.6 mph - N/A   Drizzle
11:55 AM 44.8 °F 42.4 °F 43.2 °F 94% 29.66 in 10.0 mi ENE 4.6 mph - N/A   Drizzle
12:15 PM 45.1 °F 42.8 °F 43.3 °F 93% 29.66 in 10.0 mi East 4.6 mph - 0.01 in   Drizzle
12:35 PM 45.5 °F - 43.5 °F 93% 29.66 in 10.0 mi Calm Calm - 0.01 in Rain Rain
12:55 PM 45.5 °F - 43.9 °F 94% 29.66 in 4.0 mi Calm Calm - 0.02 in Rain Light Rain
1:15 PM 45.7 °F - 43.9 °F 93% 29.66 in 5.0 mi Calm Calm - 0.01 in Rain Light Rain
1:35 PM 46.2 °F 45.0 °F 44.1 °F 92% 29.66 in 5.0 mi NNE 3.5 mph - 0.03 in Rain Rain
1:55 PM 46.8 °F - 44.8 °F 93% 29.66 in 7.0 mi NE 3.5 mph - 0.03 in   Drizzle
2:15 PM 46.6 °F - 44.8 °F 93% 29.66 in 5.0 mi Calm Calm - 0.03 in Rain Rain
2:55 PM 48.2 °F - 45.5 °F 90% 29.66 in 10.0 mi Calm Calm - 0.04 in Rain Rain
3:15 PM 48.2 °F - 45.5 °F 90% 29.66 in 7.0 mi Calm Calm - 0.01 in Rain Light Rain
3:35 PM 48.0 °F - 45.0 °F 89% 29.65 in 7.0 mi Calm Calm - 0.02 in Rain Light Rain
3:55 PM 47.8 °F - 44.4 °F 88% 29.65 in 10.0 mi Calm Calm - 0.02 in Rain Light Rain
4:15 PM 48.2 °F - 44.8 °F 88% 29.65 in 10.0 mi Calm Calm - N/A   Drizzle
4:35 PM 47.7 °F - 45.1 °F 91% 29.65 in 10.0 mi Calm Calm - N/A   Drizzle
4:55 PM 47.7 °F - 45.5 °F 92% 29.65 in 10.0 mi Calm Calm - N/A   Drizzle
5:15 PM 47.7 °F - 45.7 °F 93% 29.65 in 10.0 mi ENE 3.5 mph - N/A Rain Rain
5:35 PM 46.9 °F - 45.3 °F 94% 29.65 in 5.0 mi SE 5.8 mph - 0.01 in Rain Rain
5:55 PM 45.7 °F 42.0 °F 44.8 °F 97% 29.66 in 4.0 mi SSE 6.9 mph - 0.03 in Rain Rain
6:15 PM 45.9 °F 42.9 °F 45.0 °F 97% 29.66 in 5.0 mi South 5.8 mph - 0.01 in Rain Rain
6:35 PM 45.7 °F 43.4 °F 44.6 °F 96% 29.65 in 7.0 mi SSE 4.6 mph - 0.02 in Rain Rain
6:55 PM 45.5 °F 41.8 °F 44.2 °F 95% 29.65 in 7.0 mi SSE 6.9 mph - 0.02 in Rain Rain
7:15 PM 45.5 °F 42.5 °F 44.1 °F 95% 29.65 in 10.0 mi SSE 5.8 mph - N/A   Light Drizzle
7:35 PM 44.8 °F 43.3 °F 43.9 °F 97% 29.66 in 7.0 mi SE 3.5 mph - N/A   Light Drizzle
7:55 PM 44.4 °F 42.9 °F 43.7 °F 97% 29.65 in 10.0 mi SE 3.5 mph - N/A   Overcast
8:15 PM 44.2 °F - 43.3 °F 97% 29.66 in 10.0 mi Calm Calm - N/A   Overcast
8:35 PM 44.1 °F - 43.2 °F 97% 29.66 in 10.0 mi Calm Calm - 0.01 in   Light Drizzle
8:55 PM 43.9 °F - 43.2 °F 97% 29.66 in 7.0 mi Calm Calm - 0.01 in   Drizzle
9:15 PM 43.7 °F 42.1 °F 43.0 °F 97% 29.66 in 10.0 mi ESE 3.5 mph - N/A   Overcast
9:35 PM 43.3 °F 41.7 °F 42.8 °F 98% 29.65 in 7.0 mi East 3.5 mph - N/A   Overcast
9:55 PM 43.3 °F 40.7 °F 42.8 °F 98% 29.65 in 10.0 mi ESE 4.6 mph - N/A   Overcast
10:15 PM 43.3 °F 41.7 °F 42.8 °F 98% 29.64 in 10.0 mi ESE 3.5 mph - N/A   Overcast
10:35 PM 43.2 °F 40.5 °F 42.8 °F 99% 29.65 in 7.0 mi East 4.6 mph - N/A   Overcast
10:55 PM 42.3 °F 39.4 °F 41.9 °F 99% 29.64 in 10.0 mi SE 4.6 mph - N/A   Overcast
11:15 PM 41.9 °F 38.2 °F 41.0 °F 97% 29.64 in 10.0 mi East 5.8 mph - N/A   Overcast
11:35 PM 41.9 °F 38.2 °F 40.6 °F 95% 29.63 in 10.0 mi West 5.8 mph - N/A   Overcast